This is the latest recevied weather packets stored in our database for station/object OE3AOG-10. If no packets are shown the sender has not sent any weather packets the latest 10 day(s).
| Time | Temp. | Humidity | Pressure | Rain* | Wind** | Luminosity | Snow |
|---|---|---|---|---|---|---|---|
| 1788363724 | 27.78° C | 34% | 1020.4 hPa | - | - | - | - |
| 1788360124 | 29.44° C | 30% | 1020.5 hPa | - | - | - | - |
| 1788356524 | 31.11° C | 29% | 1020.7 hPa | - | - | - | - |
| 1788352927 | 32.78° C | 30% | 1021.4 hPa | - | - | - | - |
| 1788349326 | 32.22° C | 30% | 1021.8 hPa | - | - | - | - |
| 1788345726 | 30° C | 34% | 1022.4 hPa | - | - | - | - |
| 1788342126 | 27.78° C | 41% | 1023.1 hPa | - | - | - | - |
| 1788338525 | 26.11° C | 45% | 1023.2 hPa | - | - | - | - |
| 1788334925 | 23.89° C | 50% | 1023.2 hPa | - | - | - | - |
| 1788331323 | 21.11° C | 56% | 1022.6 hPa | - | - | - | - |
| 1788327723 | 18.33° C | 62% | 1022.8 hPa | - | - | - | - |
| 1788324122 | 17.22° C | 60% | 1022.7 hPa | - | - | - | - |
| 1788320522 | 17.78° C | 59% | 1022.8 hPa | - | - | - | - |
| 1788316922 | 17.78° C | 57% | 1022.8 hPa | - | - | - | - |
| 1788313321 | 18.89° C | 56% | 1022.7 hPa | - | - | - | - |
| 1788309723 | 18.33° C | 54% | 1022.8 hPa | - | - | - | - |
| 1788306123 | 19.44° C | 51% | 1022.9 hPa | - | - | - | - |
| 1788302523 | 20° C | 49% | 1022.9 hPa | - | - | - | - |
| 1788298922 | 21.11° C | 46% | 1022.7 hPa | - | - | - | - |
| 1788295322 | 21.67° C | 41% | 1022.4 hPa | - | - | - | - |
| 1788291722 | 22.22° C | 39% | 1022.3 hPa | - | - | - | - |
| 1788288122 | 22.78° C | 37% | 1022 hPa | - | - | - | - |
| 1788284522 | 23.33° C | 36% | 1021.3 hPa | - | - | - | - |
| 1788280921 | 25.56° C | 32% | 1021.1 hPa | - | - | - | - |
| 1788277321 | 26.67° C | 30% | 1021.3 hPa | - | - | - | - |
* Rain since midnight (hover to see other rain measurements)
** Current wind speed in m/s (hover to see current wind gust speed)